Theta_e
287 291 291 291 291 291 289 291 287 289 291 294 298 301 302 303 305 306 307 308 309 309 307 306 307 309 313 313 313 313 313 318 318 318 319 319 319 320 320 321 322 323 324 323
285 291 293 290 291 292 292 292 292 292 292 297 300 304 304 305 306 307 308 309 310 310 309 308 308 309 312 314 312 313 312 318 318 319 320 319 319 319 320 321 321 323 323 324
279 286 289 285 291 291 292 293 293 290 296 298 302 304 304 304 307 308 309 310 310 311 311 310 310 311 310 312 312 312 312 318 318 319 319 318 319 319 319 319 320 321 320 322
279 285 279 290 297 295 294 296 296 295 297 299 302 307 307 308 308 309 310 311 312 312 311 310 311 310 312 312 312 312 312 316 317 319 319 318 318 318 316 316 317 317 317 320
279 280 287 293 294 292 292 293 295 297 301 303 304 306 306 310 310 311 312 313 313 313 312 309 311 312 312 311 311 311 311 314 315 317 318 317 317 316 314 314 314 315 316 320
282 279 280 289 294 299 300 289 295 296 296 298 302 298 303 309 311 310 312 314 313 313 312 310 311 312 312 310 311 311 312 313 313 317 318 316 316 315 314 314 314 314 314 318
281 278 289 294 296 299 288 287 296 296 296 297 299 302 305 307 311 313 313 314 314 313 312 312 311 313 312 310 311 313 314 313 312 316 317 317 315 315 314 313 313 312 311 311
286 285 285 297 295 289 293 296 297 297 297 297 298 304 306 307 311 310 311 312 313 313 313 312 311 313 312 310 313 313 313 313 311 313 318 316 316 315 313 312 311 310 309 309
289 288 296 298 297 300 300 296 297 297 299 300 299 302 305 306 310 311 311 313 314 314 313 311 312 314 312 312 311 312 313 312 311 311 318 317 316 314 312 312 311 309 310 309
289 292 293 296 300 300 299 297 299 300 300 301 300 302 305 305 309 310 311 312 313 313 311 310 312 314 315 312 312 312 312 312 310 309 314 317 318 317 314 312 311 310 310 310
289 293 294 297 298 299 300 299 300 301 302 302 302 302 303 308 310 311 311 312 314 313 311 311 312 313 314 312 311 311 312 312 310 310 312 317 317 316 317 317 313 313 312 312
287 294 293 294 298 300 299 299 299 300 301 304 304 305 310 311 308 312 311 312 313 313 312 312 313 313 313 313 311 311 310 309 310 311 310 316 316 311 295 300 303 299 300 309
293 298 298 298 300 301 300 299 300 301 302 302 305 305 311 311 312 310 312 312 313 313 313 312 313 313 314 313 312 311 310 309 308 310 312 314 316 316 314 306 299 299 299 299
299 299 296 298 297 300 299 301 303 302 304 304 305 305 311 314 314 312 313 314 315 315 314 313 313 313 314 315 313 312 312 302 309 311 313 315 316 317 317 316 315 314 298 301
297 299 299 301 300 299 300 301 300 300 303 305 305 306 308 311 316 316 315 315 316 315 315 314 314 314 315 316 314 313 311 309 311 312 315 314 317 317 317 317 317 314 304 297
296 296 299 299 299 301 301 299 299 301 302 305 305 305 308 310 313 316 318 315 315 314 315 315 315 316 316 316 316 314 313 305 307 312 315 316 316 316 316 315 315 314 310 312
292 292 294 294 296 298 300 299 299 300 302 306 306 306 308 309 311 312 314 318 317 317 317 317 316 317 317 317 317 315 315 310 306 313 315 316 316 316 316 315 315 314 314 309
297 296 296 296 296 296 298 302 301 301 302 306 309 307 307 307 308 311 313 316 318 318 319 320 320 319 318 318 317 317 316 313 312 313 315 315 316 317 316 316 315 314 314 308
299 298 297 297 298 297 297 299 302 303 303 305 306 305 307 308 310 312 314 316 317 317 318 320 306 314 319 314 314 317 316 314 312 314 315 309 312 316 316 316 316 315 315 310
300 301 300 300 300 299 298 299 300 302 304 303 304 305 306 308 310 315 316 316 317 318 321 318 321 320 321 316 301 318 317 315 313 313 313 313 314 314 315 307 315 316 315 313
300 301 301 300 300 300 300 300 300 301 302 303 303 303 304 309 310 315 314 314 317 314 315 306 319 320 320 314 308 317 317 316 315 314 312 312 313 314 314 315 314 314 313 314
301 300 301 301 301 301 302 301 301 301 302 303 304 303 305 308 309 309 315 314 315 298 313 319 311 295 301 301 317 319 318 316 316 315 314 314 313 312 313 314 313 313 312 313
299 301 301 301 301 302 304 302 301 301 301 302 303 304 306 306 310 306 305 311 313 305 313 313 296 294 292 313 315 319 320 318 316 316 315 314 314 314 314 314 314 314 313 312
299 301 301 302 302 301 301 302 302 301 302 302 303 306 306 307 308 311 313 303 294 300 310 309 303 292 299 318 317 316 318 319 318 317 315 302 315 314 314 314 314 315 314 306
297 300 302 301 300 300 301 300 303 301 302 302 303 304 306 308 307 306 310 311 294 305 317 296 293 296 317 318 319 317 316 316 316 315 314 314 313 313 312 312 313 312 311 310
296 299 301 301 301 301 300 300 300 303 304 303 304 305 304 306 308 307 309 304 311 303 313 314 315 318 319 318 317 316 312 308 309 309 308 308 307 306 305 303 302 303 303 302
296 296 300 300 301 302 299 299 300 299 302 305 305 307 306 307 307 304 301 310 311 312 312 313 312 309 315 314 312 311 309 307 302 306 305 304 303 302 301 300 299 299 299 298
Wind_Speed
11 13 7 6 13 19 18 21 14 5 8 7 8 9 7 8 9 11 11 11 13 12 9 7 7 6 5 5 6 6 6 6 5 5 5 5 5 5 5 5 4 4 6 6
5 7 16 13 10 16 23 21 18 3 11 9 3 6 6 11 12 12 13 13 12 12 11 10 10 8 6 6 6 6 6 6 6 6 6 5 5 5 5 4 4 4 4 6
5 7 4 10 18 11 9 12 18 13 24 5 4 8 10 11 13 15 15 15 15 15 14 12 11 10 8 7 6 6 6 6 6 6 7 5 5 5 5 4 3 4 4 4
5 5 6 3 12 9 14 8 8 8 5 7 11 17 12 12 16 15 14 14 14 13 11 9 8 8 7 7 7 7 6 6 6 7 7 6 6 4 4 3 4 4 3 3
2 3 4 7 12 10 5 4 10 10 12 10 14 7 1 7 11 20 21 18 15 14 13 10 12 10 8 7 7 7 7 7 6 6 8 7 7 6 3 4 3 2 3 4
0 2 4 8 16 7 3 4 13 12 12 14 12 4 7 12 11 10 11 13 14 14 10 13 11 11 10 8 8 8 8 9 7 7 10 9 7 7 4 3 4 4 4 3
2 2 1 14 18 1 7 6 14 11 11 10 6 6 16 16 9 14 15 18 13 14 15 15 11 13 11 9 10 11 8 7 7 7 9 9 8 4 5 5 5 5 5 3
3 2 3 16 5 9 5 6 8 11 8 13 14 17 14 12 8 15 17 16 15 15 13 12 13 14 12 12 12 7 8 8 7 7 6 6 9 5 5 7 6 5 5 4
5 3 7 10 1 1 4 8 9 9 14 12 15 15 15 11 9 13 18 18 16 16 13 11 14 15 15 13 8 8 8 8 7 7 5 7 8 8 5 5 6 5 3 3
4 6 13 16 5 6 10 10 13 12 13 12 14 14 15 11 7 9 12 16 15 15 15 15 14 16 15 13 12 11 10 7 7 9 6 5 4 6 7 6 4 5 4 3
2 7 13 6 10 14 17 14 13 14 13 12 13 13 10 10 8 11 11 13 15 16 15 16 14 13 10 14 14 12 10 8 7 6 9 7 5 5 7 7 10 8 6 6
1 2 6 12 14 18 16 13 14 13 17 17 13 15 12 10 7 9 11 11 14 14 13 14 16 15 12 15 16 14 11 7 7 7 7 7 7 4 7 1 9 6 6 9
3 4 9 19 15 15 11 15 14 12 14 16 14 14 13 9 5 7 9 10 13 19 17 16 16 16 15 16 16 15 14 10 8 8 8 8 7 7 7 2 5 8 9 10
5 6 8 11 11 18 17 14 12 11 11 12 11 15 14 10 7 7 13 16 14 12 15 16 16 17 17 18 17 15 13 15 10 9 8 8 9 9 8 8 7 4 5 7
11 11 7 13 16 16 16 10 12 11 10 13 11 11 14 13 10 8 3 8 8 8 8 15 15 15 16 17 18 16 13 11 11 10 9 9 8 8 8 8 8 4 3 2
14 14 12 11 13 13 16 15 14 11 10 11 12 12 12 12 10 11 10 4 11 13 13 12 15 16 18 18 17 13 13 15 13 11 9 9 8 9 8 8 7 7 6 8
10 10 11 14 14 16 15 15 13 12 10 10 12 11 8 8 9 12 11 8 3 7 8 10 8 7 11 17 18 13 11 11 15 10 11 11 10 11 9 9 9 8 9 8
11 12 11 10 12 15 15 14 14 12 12 9 11 11 8 7 6 7 8 7 6 7 8 6 4 10 12 11 11 10 11 11 13 13 11 11 11 10 10 10 10 10 9 6
11 13 15 12 11 11 12 13 14 12 13 12 10 10 8 8 5 5 4 4 1 2 2 5 10 8 7 10 12 7 7 12 12 10 11 10 8 10 10 10 10 10 9 7
11 12 14 16 14 12 12 12 14 13 14 13 10 8 9 8 7 5 4 2 1 3 6 3 5 9 6 6 10 8 11 10 13 12 10 10 11 11 10 11 11 10 9 9
12 12 13 15 14 13 12 12 10 13 15 12 12 9 9 8 7 5 5 4 1 2 7 8 4 5 7 4 7 6 8 10 11 12 11 12 10 10 10 10 10 10 9 10
10 12 12 13 15 15 13 11 11 10 13 12 14 9 8 7 7 3 4 4 6 4 2 2 8 12 8 5 4 5 7 9 9 8 9 10 10 10 10 9 10 9 8 8
9 11 13 13 14 15 12 10 11 10 13 14 11 10 7 5 3 5 4 3 2 8 1 4 4 9 10 9 8 3 8 10 11 10 9 9 10 10 9 10 9 9 8 8
11 10 12 14 13 12 11 9 9 10 12 12 13 10 7 4 4 4 7 6 5 1 2 4 4 5 6 8 7 9 13 9 9 10 8 9 8 7 8 8 8 7 7 7
10 11 11 12 11 10 12 14 11 9 9 9 11 12 11 7 5 6 4 4 2 4 3 3 5 7 2 9 14 14 11 9 8 6 5 5 5 4 4 5 5 5 4 4
6 7 9 13 8 8 10 11 12 8 7 8 7 7 8 8 9 6 4 1 2 4 3 1 4 5 6 10 3 13 8 6 4 6 6 5 6 5 5 5 4 4 4 4
4 5 7 7 7 9 10 12 12 13 10 7 8 8 7 7 9 8 5 5 4 4 2 2 3 6 5 6 4 7 7 7 6 8 7 7 6 6 6 6 6 5 4 4
Wind_Direction
301 289 282 171 180 200 203 214 211 222 241 249 248 238 235 138 129 142 151 164 169 168 164 168 165 174 185 174 162 158 154 157 159 130 121 126 128 123 126 131 131 132 121 123
284 261 274 266 254 215 199 208 230 243 253 227 266 128 188 153 158 165 172 179 169 170 164 172 174 176 181 177 169 160 162 164 145 130 126 128 132 137 134 133 129 126 127 136
302 339 242 258 235 228 208 226 206 195 235 147 201 215 194 166 174 175 180 175 172 177 176 176 177 169 181 183 153 168 165 158 149 140 131 141 140 138 139 139 136 128 114 132
267 302 168 265 26 218 203 51 351 272 325 231 202 213 186 184 176 176 172 180 177 173 174 172 172 163 165 151 168 167 169 166 150 147 142 143 135 137 120 114 138 135 129 130
183 260 265 21 22 352 14 75 8 343 341 339 334 340 249 184 178 181 179 181 175 169 170 157 169 167 159 159 165 166 174 174 165 156 152 152 149 152 150 130 122 132 138 137
85 208 172 356 320 292 149 179 356 346 334 333 330 157 240 183 171 161 157 168 164 162 159 160 176 159 157 173 165 186 184 183 165 155 155 165 159 162 147 131 129 124 118 133
227 240 30 346 324 191 148 287 317 323 318 317 298 266 311 305 193 171 163 165 152 156 167 176 162 160 172 168 187 196 181 161 159 162 164 165 155 158 143 131 120 113 106 106
183 223 127 355 3 63 274 284 286 314 308 306 298 299 297 285 248 151 150 155 164 162 173 166 163 165 173 185 196 166 164 164 164 169 161 146 161 149 143 135 130 133 125 102
5 25 331 342 339 292 286 273 306 305 316 314 309 307 306 277 205 193 164 168 169 169 161 166 168 174 177 193 161 157 158 171 164 156 162 154 148 146 138 143 147 155 154 147
326 332 317 306 286 350 339 319 307 311 315 319 307 312 306 276 200 183 177 170 163 159 168 170 177 180 190 162 166 162 171 175 159 160 156 155 143 157 154 161 158 161 163 171
255 305 323 59 340 333 326 322 319 320 323 328 318 316 297 301 208 182 191 160 163 170 174 175 171 183 165 160 160 168 172 172 166 165 169 164 153 170 177 187 176 174 192 173
64 286 279 283 318 319 324 315 321 321 322 333 335 324 319 299 250 180 165 182 166 173 165 166 172 173 168 166 165 165 169 170 178 170 172 168 163 144 48 33 207 224 174 173
236 236 241 284 299 305 313 315 312 315 308 310 331 323 318 316 290 179 153 170 188 174 172 165 172 175 173 170 168 173 175 172 169 172 176 174 178 181 187 60 116 183 191 201
283 304 294 297 312 311 316 306 306 294 294 303 321 338 333 330 305 188 171 186 186 184 167 168 173 182 175 171 174 178 175 164 170 180 184 185 188 193 195 191 196 184 207 195
344 323 266 297 315 316 320 310 314 315 319 321 330 345 342 352 356 339 221 151 148 155 187 167 176 182 173 175 176 175 171 173 178 177 181 181 183 187 193 195 199 170 137 145
314 317 312 319 323 328 326 321 321 314 316 316 314 326 353 340 346 2 8 150 149 177 172 191 186 183 173 175 177 176 183 173 171 174 171 177 182 187 190 193 193 193 191 202
300 303 325 319 327 321 316 307 305 304 300 300 298 307 333 345 3 13 359 360 44 139 167 177 175 160 189 175 175 180 177 170 172 173 181 185 185 192 193 196 202 201 210 188
269 272 277 280 281 292 303 308 305 303 300 288 295 308 320 347 357 342 346 344 23 58 72 78 165 152 170 180 194 182 173 172 177 187 181 185 192 190 191 195 199 201 210 187
266 267 275 275 278 281 285 290 298 304 299 291 297 294 302 302 328 320 340 6 32 143 68 53 85 123 163 171 167 165 208 172 181 185 189 184 176 189 192 197 201 205 203 179
298 290 287 287 283 278 282 280 283 293 297 294 284 284 286 294 303 339 354 353 188 238 173 162 127 106 129 179 177 191 161 208 181 183 180 183 186 191 196 198 200 199 197 196
320 310 290 287 284 275 268 270 279 283 289 302 278 269 274 271 287 313 354 0 272 81 261 195 180 114 118 153 166 202 190 179 208 179 179 184 186 191 198 202 205 201 201 204
304 314 321 309 305 289 268 258 261 264 280 282 283 262 262 272 288 294 223 248 297 306 280 7 70 36 48 240 149 207 211 191 195 192 176 179 186 190 196 194 208 209 204 213
313 320 325 326 320 307 282 267 260 258 262 269 273 261 226 243 256 301 318 244 289 316 298 126 76 115 203 87 46 321 238 202 185 201 186 186 189 189 191 193 196 203 198 201
315 315 323 316 324 326 331 278 253 256 262 269 275 269 247 237 267 237 275 298 295 276 316 15 121 185 95 67 50 37 274 237 209 199 170 173 184 186 190 186 195 203 205 187
308 317 314 314 323 330 329 331 300 245 250 252 258 269 263 261 214 264 252 283 294 298 322 5 65 48 37 52 359 313 326 260 228 163 155 166 163 163 158 171 182 196 190 186
305 325 328 325 321 318 334 342 335 293 265 269 260 247 250 245 251 247 242 175 269 225 277 340 75 46 63 86 135 273 261 252 188 107 123 126 128 125 124 123 123 126 131 138
307 310 346 338 355 349 348 354 355 350 324 267 253 258 245 246 237 235 186 177 160 255 164 56 94 111 112 99 98 244 248 219 125 129 125 123 128 126 120 120 121 124 118 107